This demonstration page uses our WeatherBlox Daily Observations layout. Learn more.

Left ArrowRight Arrow

39.51506, -84.39828

Hourly Observations for December 16, 2015

Temp ( °F °C ) Dew Point ( °F °C ) Humidity (%) Winds ( mph kmh ) Pressure ( in mb ) Visibility ( mi km ) Precip ( " mm )
12:15 am 00:15 Clear 39 4 36 2 87 87 E 5 7 29.97 1015 10 16 N/A
12:35 am 00:35 Clear 39 4 35 1.7 85 85 E 5 7 29.97 1015 10 16 N/A
12:55 am 00:55 Clear 39 4 35 1.7 85 85 ENE 6 9 29.97 1015 10 16 N/A
1:15 am 01:15 Clear 39 4 35 1.7 85 85 N N/A 29.97 1015 10 16 N/A
1:35 am 01:35 Clear 40 4.4 36 2.1 85 85 NE 3 6 29.97 1015 10 16 N/A
1:55 am 01:55 Clear 39 4 36 2 87 87 N N/A 29.97 1015 10 16 N/A
2:15 am 02:15 Clear 37 2.6 33 0.7 87 87 N N/A 30.00 1016 10 16 N/A
2:35 am 02:35 Clear 37 2.6 34 1 89 89 N N/A 30.00 1016 7 11 N/A
2:55 am 02:55 Clear 37 2.6 34 1 89 89 N N/A 30.00 1016 7 11 N/A
3:15 am 03:15 Clear with Mist and Fog 35 1.5 32 undefined 90 90 NNE 3 6 30.00 1016 5 8 N/A
3:35 am 03:35 Clear 35 1.5 32 undefined 90 90 N N/A 30.00 1016 10 16 N/A
3:55 am 03:55 Clear 34 1.2 32 -0.2 91 91 N N/A 30.00 1016 10 16 N/A
4:15 am 04:15 Clear with Mist and Fog 34 1.2 32 -0.2 91 91 N 3 6 29.97 1015 5 8 N/A
4:35 am 04:35 Clear 34 1.2 32 -0.1 91 91 N N/A 29.97 1015 7 11 N/A
4:55 am 04:55 Clear 34 1.2 32 -0.1 91 91 N N/A 30.00 1016 10 16 N/A
5:15 am 05:15 Clear 34 1.2 32 -0.1 91 91 N N/A 29.97 1015 7 11 N/A
5:35 am 05:35 Clear with Mist and Fog 34 1.2 32 -0.1 91 91 NNE 3 6 29.97 1015 3 4 N/A
5:55 am 05:55 Clear 34 1.2 32 -0.1 91 91 N 3 6 29.97 1015 7 11 N/A
6:15 am 06:15 Clear 34 1.2 32 -0.1 91 91 N N/A 29.97 1015 7 11 N/A
6:35 am 06:35 Clear 34 1.2 32 -0.1 91 91 N N/A 29.97 1015 7 11 N/A
6:55 am 06:55 Clear 34 1.2 32 -0.1 91 91 N 3 6 29.97 1015 7 11 N/A
7:15 am 07:15 Clear 34 1.2 32 -0.1 91 91 N N/A 29.97 1015 7 11 N/A
7:35 am 07:35 Clear 34 1.2 32 -0.1 91 91 N N/A 29.97 1015 7 11 N/A
7:55 am 07:55 Sunny 34 1.2 32 -0.1 91 91 N N/A 29.97 1015 7 11 N/A
8:15 am 08:15 Sunny with Mist and Fog 34 1.2 32 -0.1 91 91 N N/A 29.97 1015 3 4 N/A
8:35 am 08:35 Sunny with Mist and Fog 34 1.2 32 -0.1 91 91 N N/A 29.97 1015 4 6 N/A
8:55 am 08:55 Sunny with Mist and Fog 37 2.5 34 1 90 90 N N/A 29.94 1014 3 5 N/A
9:15 am 09:15 Sunny with Mist and Fog 39 4 37 2.5 90 90 N N/A 29.94 1014 3 5 N/A
9:35 am 09:35 Sunny 42 5.4 39 3.7 89 89 N N/A 29.94 1014 10 16 N/A
9:55 am 09:55 Sunny 43 6 39 4.1 88 88 N N/A 29.94 1014 10 16 N/A
10:15 am 10:15 Sunny 48 9.1 43 6.3 83 83 SSE 8 13 29.94 1014 10 16 N/A
10:35 am 10:35 Sunny 49 9.6 41 5.2 74 74 SSE 6 9 29.91 1013 10 16 N/A
10:55 am 10:55 Sunny 51 10.3 42 5.6 73 73 SSE 7 11 29.91 1013 10 16 N/A
11:15 am 11:15 Sunny 52 11 43 6 72 72 S 9 15 29.91 1013 10 16 N/A
11:35 am 11:35 Sunny 55 12.5 45 7.2 70 70 S 6 9 29.88 1012 10 16 N/A
11:55 am 11:55 Sunny 55 12.5 44 6.8 68 68 S 6 9 29.85 1011 10 16 N/A
12:15 pm 12:15 Sunny 55 12.7 44 6.7 67 67 S 6 9 29.85 1011 10 16 N/A
12:35 pm 12:35 Sunny 58 14.5 45 7.4 63 63 S 8 13 29.83 1010 10 16 N/A
12:55 pm 12:55 Sunny 59 15 45 7.4 61 61 SSW 9 15 29.83 1010 10 16 N/A
1:15 pm 13:15 Sunny 60 15.3 45 7.3 59 59 SW 7 11 29.83 1010 10 16 N/A
1:35 pm 13:35 Sunny 60 15.3 45 7 58 58 SW 6 9 29.83 1010 10 16 N/A
1:55 pm 13:55 Sunny 60 15.3 45 7.1 58 58 SSW 12 19 29.83 1010 10 16 N/A
2:15 pm 14:15 Sunny 60 15.3 45 7.4 60 60 SW 8 13 29.83 1010 10 16 N/A
2:35 pm 14:35 Sunny 60 15.3 46 7.5 60 60 SSW 10 17 29.80 1009 10 16 N/A
2:55 pm 14:55 Partly Cloudy 60 15.3 44 6.9 58 58 SSE 9 15 29.77 1008 10 16 N/A
3:15 pm 15:15 Partly Cloudy 60 15.3 45 7 58 58 SSE 10 17 29.74 1007 10 16 N/A
3:35 pm 15:35 Partly Cloudy 60 15.4 44 6.9 57 57 SSE 10 17 29.71 1006 10 16 N/A
3:55 pm 15:55 Partly Cloudy 61 16 45 7.3 57 57 S 9 15 29.74 1007 10 16 N/A
4:15 pm 16:15 Partly Cloudy 60 15.8 45 7.4 58 58 SSW 8 13 29.74 1007 10 16 N/A
4:35 pm 16:35 Mostly Cloudy 60 15.6 45 7.3 58 58 SW 7 11 29.74 1007 10 16 N/A
4:55 pm 16:55 Cloudy 60 15.3 46 7.9 62 62 SSW 6 9 29.77 1008 10 16 N/A
5:15 pm 17:15 Mostly Cloudy 60 15.6 45 7.3 58 58 S 6 9 29.74 1007 10 16 N/A
5:35 pm 17:35 Mostly Cloudy 60 15.3 45 7.3 59 59 SW 5 7 29.74 1007 10 16 N/A
5:55 pm 17:55 Cloudy 60 15.3 47 8.2 63 63 SSW 3 6 29.74 1007 10 16 N/A
6:15 pm 18:15 Mostly Cloudy 61 15.9 44 6.7 55 55 S 12 19 29.74 1007 10 16 N/A
6:35 pm 18:35 Cloudy 62 16.5 43 6 50 50 SSW 9 15 29.74 1007 10 16 N/A
6:55 pm 18:55 Cloudy 61 16.2 41 5.2 48 48 SSW 10 17 29.74 1007 10 16 N/A
7:15 pm 19:15 Cloudy 61 16 40 4.6 47 47 SSW 9 15 29.74 1007 10 16 N/A
7:35 pm 19:35 Cloudy 61 16 40 4.3 46 46 SSW 9 15 29.74 1007 10 16 N/A
7:55 pm 19:55 Cloudy 61 16 40 4.6 47 47 SSW 7 11 29.74 1007 10 16 N/A
8:15 pm 20:15 Cloudy 61 16 40 4.7 47 47 SSW 7 11 29.74 1007 10 16 N/A
8:35 pm 20:35 Cloudy 60 15.3 42 5.7 53 53 WSW 6 9 29.74 1007 10 16 N/A
8:55 pm 20:55 Cloudy 60 15.3 42 5.6 53 53 S 6 9 29.74 1007 10 16 N/A
9:15 pm 21:15 Cloudy 60 15.3 43 6.1 54 54 WSW 5 7 29.74 1007 10 16 N/A
9:35 pm 21:35 Cloudy 58 14.7 44 6.5 58 58 SW 7 11 29.74 1007 10 16 N/A
9:55 pm 21:55 Cloudy with Drizzle 60 15.3 44 6.8 57 57 SW 7 11 29.77 1008 10 16 N/A
10:15 pm 22:15 Cloudy with Rain 60 15.3 45 7.3 59 59 WSW 8 13 29.74 1007 10 16 N/A
10:35 pm 22:35 Cloudy 60 15.3 47 8.3 63 63 SSW 9 15 29.74 1007 10 16 N/A
10:55 pm 22:55 Cloudy 60 15.3 47 8.2 63 63 SW 13 20 29.74 1007 10 16 N/A
11:15 pm 23:15 Cloudy 60 15.3 47 8.5 64 64 SW 9 15 29.74 1007 10 16 N/A
11:35 pm 23:35 Cloudy 60 15.3 47 8.6 65 65 WSW 9 15 29.74 1007 10 16 N/A
11:55 pm 23:55 Cloudy 60 15.3 47 8.6 65 65 WSW 8 13 29.74 1007 10 16 N/A

Powered by AerisWeather